Regional Weather Roundup
Issued by NWS

Home | Current Version | Previous Version | Text Only | Print | Product List | Glossary Off
Versions: 1 2 3 4 5 6 7 8 9 10 11 12 13 14 15 16 17 18 19 20 21 22 23 24 25 26 27 28 29 30 31 32 33 34 35 36 37 38 39 40 41 42 43 44 45 46 47 48 49 50

609
ASUS43 KOAX 250802
RWRNE

WEATHER ROUNDUP FOR NEBRASKA
NATIONAL WEATHER SERVICE OMAHA NE
300 AM CDT WED MAY 25 2016

NOTES: SATELLITE DATA IS BEING USED TO AUGMENT CLOUD COVER ABOVE
       12000 FEET.
       "FAIR" INDICATES FEW OR NO CLOUDS BELOW 12,000 FEET WITH NO
       SIGNIFICANT WEATHER AND/OR OBSTRUCTIONS TO VISIBILITY.

  * THESE STATIONS DO NOT REPORT WEATHER SUCH AS RAIN...SNOW OR FOG.

NEZ001>004-019>022-054>056-250900-
NEBRASKA PANHANDLE

CITY           SKY/WX    TMP DP  RH WIND       PRES   REMARKS
SCOTTSBLUFF    CLOUDY    51  48  89 N7        29.90S
ALLIANCE       CLOUDY    52  50  93 N8        29.88R
CHADRON        CLOUDY    51  32  48 CALM      29.86F
SIDNEY         CLOUDY    53  51  93 NW13      29.86R
$$

NEZ057>060-069>072-079>082-250900-
SOUTHWEST NEBRASKA

CITY           SKY/WX    TMP DP  RH WIND       PRES   REMARKS
NORTH PLATTE   LGT RAIN  57  54  89 SE6       29.81S
IMPERIAL       CLOUDY    59  55  87 N16       29.82F
LEXINGTON      CLOUDY    60  56  89 NW12      29.83R
MCCOOK         CLOUDY    59  56  89 E10       29.77F
$$

NEZ005>010-023>029-035>040-094-250900-
NORTH CENTRAL NEBRASKA

CITY           SKY/WX    TMP DP  RH WIND       PRES   REMARKS
VALENTINE      CLOUDY    57  32  38 CALM      29.81R
AINSWORTH      CLOUDY    57  56  96 W6        29.82R
BROKEN BOW     LGT RAIN  60  54  80 SE8G36    29.80S
ORD            MOCLDY    59  56  89 NE7       29.73F
$$

NEZ041-046>049-061>064-073>077-083>087-250900-
SOUTH CENTRAL NEBRASKA

CITY           SKY/WX    TMP DP  RH WIND       PRES   REMARKS
GRAND ISLAND   CLOUDY    63  56  78 N20       29.77F
HASTINGS       CLOUDY    67  56  67 W14       29.82F THUNDER
KEARNEY *      MOCLDY    61  54  77 E9        29.79F
YORK           CLOUDY    64  57  77 W10       29.79R
$$

NEZ011>018-030>034-042>045-250900-
NORTHEAST NEBRASKA

CITY           SKY/WX    TMP DP  RH WIND       PRES   REMARKS
NORFOLK        CLOUDY    70  57  63 S14       29.80R
ALBION         TSTM      59  56  88 N13G20    29.83R
FREMONT        CLOUDY    66  57  73 SE29G41   29.71F
TEKAMAH        LGT RAIN  66  60  81 S29G38    29.76F
$$

NEZ050>053-065>068-078-088>093-250900-
SOUTHEAST NEBRASKA

CITY           SKY/WX    TMP DP  RH WIND       PRES   REMARKS
LINCOLN        LGT RAIN  64  59  83 SE28G36   29.67F
OMAHA EPPLEY   TSTM      66  60  81 CALM      29.81F
FALLS CITY     LGT RAIN  64  62  93 SW8       29.84F
$$

NEZ044-045-051>053-067-250900-
OMAHA AREA

CITY           SKY/WX    TMP DP  RH WIND       PRES   REMARKS
OMAHA EPPLEY   TSTM      66  60  81 CALM      29.81F
FREMONT        CLOUDY    66  57  73 SE29G41   29.71F
$$




USA.gov is the U.S. government's official web portal to all federal, state and local government web resources and services.